TimeMST,TemperatureF,Dew PointF,Humidity,Sea Level PressureIn,VisibilityMPH,Wind Direction,Wind SpeedMPH,Gust SpeedMPH,PrecipitationIn,Events,Conditions,WindDirDegrees,DateUTC
12:53 AM,60.1,45.0,57,30.00,10.0,WSW,4.6,-,N/A,,Clear,250,2013-11-18 07:53:00
1:53 AM,57.9,44.1,60,30.00,10.0,SW,4.6,-,N/A,,Clear,220,2013-11-18 08:53:00
2:53 AM,57.9,43.0,58,29.99,10.0,Calm,Calm,-,N/A,,Partly Cloudy,0,2013-11-18 09:53:00
3:53 AM,55.0,41.0,59,30.00,10.0,SE,6.9,-,N/A,,Clear,140,2013-11-18 10:53:00
4:53 AM,54.0,41.0,62,29.99,10.0,SSE,4.6,-,N/A,,Clear,150,2013-11-18 11:53:00
5:53 AM,55.0,42.1,62,30.02,10.0,Calm,Calm,-,N/A,,Mostly Cloudy,0,2013-11-18 12:53:00
6:53 AM,55.0,42.1,62,30.03,10.0,East,3.5,-,N/A,,Partly Cloudy,80,2013-11-18 13:53:00
7:53 AM,57.0,42.1,57,30.04,10.0,SSE,8.1,-,N/A,,Clear,150,2013-11-18 14:53:00
8:53 AM,61.0,43.0,52,30.05,10.0,SE,8.1,-,N/A,,Clear,140,2013-11-18 15:53:00
9:53 AM,68.0,45.0,43,30.04,10.0,SSE,6.9,-,N/A,,Clear,160,2013-11-18 16:53:00
10:53 AM,73.0,46.0,38,30.01,10.0,Variable,3.5,-,N/A,,Clear,0,2013-11-18 17:53:00
11:53 AM,77.0,39.0,25,29.99,10.0,SSE,5.8,-,N/A,,Clear,160,2013-11-18 18:53:00
12:53 PM,77.0,44.1,31,29.96,10.0,Calm,Calm,-,N/A,,Partly Cloudy,0,2013-11-18 19:53:00
1:53 PM,78.1,43.0,29,29.93,10.0,North,9.2,-,N/A,,Clear,350,2013-11-18 20:53:00
2:53 PM,79.0,41.0,26,29.91,10.0,Variable,4.6,-,N/A,,Clear,0,2013-11-18 21:53:00
3:53 PM,78.1,41.0,27,29.91,10.0,NNW,6.9,-,N/A,,Clear,340,2013-11-18 22:53:00
4:53 PM,77.0,39.9,26,29.91,10.0,North,4.6,-,N/A,,Clear,350,2013-11-18 23:53:00
5:53 PM,73.0,42.1,33,29.93,10.0,NNW,10.4,-,N/A,,Clear,340,2013-11-19 00:53:00
6:53 PM,70.0,43.0,38,29.95,10.0,NNW,8.1,-,N/A,,Clear,340,2013-11-19 01:53:00
7:53 PM,68.0,44.1,42,29.96,10.0,WNW,4.6,-,N/A,,Clear,300,2013-11-19 02:53:00
8:53 PM,63.0,42.1,46,29.98,10.0,South,6.9,-,N/A,,Clear,170,2013-11-19 03:53:00
9:53 PM,62.1,43.0,50,29.98,10.0,SSE,4.6,-,N/A,,Clear,160,2013-11-19 04:53:00
10:53 PM,59.0,42.1,53,29.98,10.0,SSE,4.6,-,N/A,,Clear,150,2013-11-19 05:53:00
11:53 PM,57.9,39.9,51,29.97,10.0,SE,5.8,-,N/A,,Clear,140,2013-11-19 06:53:00